Weather in Las Vegas

United States     36°14′01″N   115°14′29″W
temp.,
°C
wind,
m/s
gust,
m/s
humid.,
%
clouds,
%
prec.,
mm/h
press.,
hPa
HPBL,
m
24 may, tue
tue2423:00+19n11177 0.0 100839
02:00+19nnw23150 0.0 100932
05:00+18nw44172 0.0 101131
08:00+24nnw34121 0.0 1011553
11:00+28se3491 0.0 10102438
14:00+31se4670 0.0 10072609
17:00+32ne1577 0.0 10052633
20:00+25s22116 0.0 100660
25 may, wed
wed2523:00+22n12126 0.0 100719
02:00+21nnw22135 0.0 100718
05:00+19nw22165 0.0 100916
08:00+26nnw01120 0.0 1011346
11:00+31se42100 0.0 10101391
14:00+34sse4480 0.0 10082039
17:00+34se2375 0.0 10051634
20:00+26ese11135 0.0 100596
26 may, thu
thu2623:00+25n22135 0.0 100613
02:00+23w12185 0.0 100716
05:00+21ne122180 0.0 100818
08:00+26e221679 0.0 1010281
11:00+31ese34125 0.0 1009879
14:00+37sse4775 0.0 10054061
17:00+36sw8880 0.0 10043896
20:00+30sw56150 0.0 1005198
27 may, fri
fri2723:00+25wsw331842 0.0 100761
02:00+23s121975 0.0 100721
05:00+20ne222531 0.0 100923
08:00+25ese222046 0.0 1010360
11:00+32sse461124 0.0 10081944
14:00+35ssw1111788 0.0 10062824
17:00+34sw910895 0.0 10042803
20:00+30sw81211100 0.0 1005274
28 may, sat
sat2823:00+24wsw34169 0.0 100557
02:00+21sw12187 0.0 100425
05:00+18ene122799 0.0 100522
08:00+23e2121100 0.0 1007485
11:00+29se33145 0.0 10051307
14:00+33sse44105 0.0 10012194
17:00+34ssw64100 0.0 9982484
20:00+28sw441421 0.0 996107